Location: Sternwarte auf dem Internationalen Platz Vogelsang IP
(50.5721°N, 6.4398°E)
Time: 00:57:54
(UTC+01:00)

SR - All Passes

Search period start: 06 December 2025 00:00
Search period end: 16 December 2025 00:00
Orbit: 577 x 845 km, 66.7° (Epoch: 05 December)

Date Brightness Start Highest point End Pass type
(mag) Time Alt. Az. Time Alt. Az. Time Alt. Az.
06 Dec - 01:01:54 10° WSW 01:05:44 30° NW 01:09:30 10° NNE night (unlit)
06 Dec - 02:47:28 10° NNW 02:48:45 11° NNW 02:50:02 10° N night (unlit)
06 Dec - 04:32:03 10° N 04:32:27 10° N 04:32:49 10° NNE visible
06 Dec - 06:12:07 10° NNW 06:15:39 24° NE 06:19:18 10° E visible
06 Dec - 07:53:22 10° NW 07:57:42 70° SW 08:02:16 10° SSE daylight
06 Dec - 09:38:07 10° W 09:38:36 10° WSW 09:39:05 10° WSW daylight
06 Dec - 22:26:10 10° SSE 22:29:27 21° ESE 22:32:41 10° ENE night (unlit)
07 Dec - 00:06:30 10° SW 00:10:45 57° NW 00:14:56 10° NNE night (unlit)
07 Dec - 01:50:46 10° WNW 01:53:19 15° NNW 01:55:50 10° N night (unlit)
07 Dec - 05:17:45 10° NNW 05:20:24 16° NNE 05:23:07 10° ENE visible
07 Dec - 06:58:39 10° NNW 07:02:55 58° NE 07:07:26 10° SE visible
07 Dec - 08:40:51 10° WNW 08:44:16 22° WSW 08:47:51 10° SSW daylight
07 Dec - 23:11:40 10° SSW 23:16:00 70° ESE 23:20:12 10° NE night (unlit)
08 Dec - 00:54:36 10° W 00:58:03 23° NW 01:01:28 10° NNE night (unlit)
08 Dec - 04:23:31 10° N 04:24:59 11° NNE 04:26:28 10° NE visible
08 Dec - 06:04:05 10° NNW 06:07:58 31° NE 06:12:00 10° ESE visible
08 Dec - 07:45:34 10° NW 07:49:46 46° WSW 07:54:11 10° SSE visible
08 Dec - 22:17:33 10° S 22:21:25 31° ESE 22:25:10 10° NE night (unlit)
08 Dec - 23:58:55 10° WSW 00:02:58 39° NW 00:06:59 10° NNE night (unlit)
09 Dec - 01:43:52 10° NW 01:45:46 13° NNW 01:47:42 10° N night (unlit)
09 Dec - 05:09:38 10° NNW 05:12:49 20° NNE 05:16:05 10° E visible
09 Dec - 06:50:43 10° NW 06:55:04 84° NE 06:59:42 10° SE visible
09 Dec - 08:33:39 10° WNW 08:36:12 15° WSW 08:38:49 10° SW daylight
09 Dec - 21:24:34 10° SE 21:27:00 15° ESE 21:29:23 10° ENE night (unlit)
09 Dec - 23:03:45 10° SW 23:08:05 79° NW 23:12:20 10° NE night (unlit)
10 Dec - 00:47:25 10° WNW 00:50:24 18° NNW 00:53:23 10° NNE night (unlit)
10 Dec - 04:15:18 10° N 04:17:28 13° NNE 04:19:41 10° NE visible
10 Dec - 05:56:04 10° NNW 06:00:13 43° NE 06:04:34 10° ESE visible
10 Dec - 07:37:52 10° NW 07:41:46 31° WSW 07:45:52 10° S visible
10 Dec - 22:09:14 10° SSW 22:13:23 48° ESE 22:17:28 10° NE night (unlit)
10 Dec - 23:51:28 10° W 23:55:13 29° NW 23:58:57 10° NNE night (unlit)
11 Dec - 01:37:06 10° NNW 01:38:17 11° NNW 01:39:28 10° N night (unlit)
11 Dec - 03:21:16 10° N 03:21:59 10° NNE 03:22:42 10° NNE visible
11 Dec - 05:01:33 10° NNW 05:05:09 25° NE 05:08:54 10° E visible
11 Dec - 06:42:49 10° NW 06:47:10 67° WSW 06:51:46 10° SSE visible
11 Dec - 21:15:32 10° SSE 21:18:54 22° ESE 21:22:11 10° ENE night (unlit)
11 Dec - 22:56:01 10° SW 23:00:14 54° NW 23:04:23 10° NNE night (unlit)
12 Dec - 00:40:22 10° WNW 00:42:49 15° NNW 00:45:17 10° N night (unlit)
12 Dec - 04:07:08 10° NNW 04:09:55 16° NNE 04:12:45 10° ENE visible
12 Dec - 05:48:04 10° NNW 05:52:23 61° NE 05:56:58 10° SE visible
12 Dec - 07:30:21 10° WNW 07:33:43 21° WSW 07:37:14 10° SSW visible
12 Dec - 22:01:07 10° SSW 22:05:26 73° ESE 22:09:40 10° NE night (unlit)
12 Dec - 23:44:09 10° W 23:47:31 22° NW 23:50:53 10° NNE night (unlit)
13 Dec - 03:12:52 10° N 03:14:29 12° NNE 03:16:07 10° NE visible
13 Dec - 04:53:29 10° NNW 04:57:26 33° NE 05:01:34 10° ESE visible
13 Dec - 06:35:01 10° NW 06:39:12 44° WSW 06:43:38 10° S visible
13 Dec - 21:06:56 10° S 21:10:49 33° ESE 21:14:38 10° NE night (unlit)
13 Dec - 22:48:25 10° WSW 22:52:25 38° NW 22:56:23 10° NNE night (unlit)
14 Dec - 00:33:26 10° NW 00:35:16 12° NNW 00:37:06 10° N night (unlit)
14 Dec - 03:59:01 10° NNW 04:02:17 20° NNE 04:05:39 10° E visible
14 Dec - 05:40:07 10° NW 05:44:30 88° NE 05:49:11 10° SE visible
14 Dec - 07:23:10 10° WNW 07:25:36 14° WSW 07:28:08 10° SW visible
14 Dec - 20:13:50 10° SSE 20:16:24 16° ESE 20:18:55 10° ENE night (unlit)
14 Dec - 21:53:12 10° SW 21:57:30 75° NW 22:01:45 10° NE night (unlit)
14 Dec - 23:36:58 10° WNW 23:39:52 18° NNW 23:42:47 10° NNE night (unlit)
15 Dec - 03:04:39 10° N 03:06:57 14° NNE 03:09:17 10° NE visible
15 Dec - 04:45:27 10° NNW 04:49:39 45° NE 04:54:05 10° ESE visible
15 Dec - 06:27:18 10° NW 06:31:11 30° WSW 06:35:16 10° S visible
15 Dec - 20:58:37 10° SSW 21:02:47 50° ESE 21:06:53 10° NE night (unlit)
15 Dec - 22:40:57 10° W 22:44:39 28° NW 22:48:20 10° NNE night (unlit)
